Date_Time,Julian_Date,Latitude,Longitude,Instrument_Depth,U,V,Speed,Direction
(yyyy-mm-dd hh:mn:ss UTC),(JD),(+ deg. North),(+ deg. East),(m),(cm/s),(cm/s),(cm/s),(deg True)
1982-05-24 19:30:00 UTC,2445114.312500,28.7317,-95.2428,0201,14.38,7.01,16.0000,64.0000
1982-05-24 20:00:00 UTC,2445114.333333,28.7317,-95.2428,0201,13.99,7.76,16.0000,61.0000
1982-05-24 20:30:00 UTC,2445114.354167,28.7317,-95.2428,0201,12.24,6.79,14.0000,61.0000
1982-05-24 21:00:00 UTC,2445114.375000,28.7317,-95.2428,0201,11.05,4.69,12.0000,67.0000
1982-05-24 21:30:00 UTC,2445114.395833,28.7317,-95.2428,0201,8.83,1.72,9.0000,79.0000
1982-05-24 22:00:00 UTC,2445114.416667,28.7317,-95.2428,0201,5.99,0.42,6.0000,86.0000
1982-05-24 22:30:00 UTC,2445114.437500,28.7317,-95.2428,0201,4.00,-0.14,4.0000,92.0000
1982-05-24 23:00:00 UTC,2445114.458333,28.7317,-95.2428,0201,3.00,-0.10,3.0000,92.0000
1982-05-24 23:30:00 UTC,2445114.479167,28.7317,-95.2428,0201,1.98,0.28,2.0000,82.0000
1982-05-25 00:00:00 UTC,2445114.500000,28.7317,-95.2428,0201,0.98,0.19,1.0000,79.0000
1982-05-25 00:30:00 UTC,2445114.520833,28.7317,-95.2428,0201,-0.00,0.00,0.0000,282.0000
1982-05-25 01:00:00 UTC,2445114.541667,28.7317,-95.2428,0201,-0.00,0.00,0.0000,282.0000
1982-05-25 01:30:00 UTC,2445114.562500,28.7317,-95.2428,0201,-0.00,0.00,0.0000,274.0000
1982-05-25 02:00:00 UTC,2445114.583333,28.7317,-95.2428,0201,-0.99,0.16,1.0000,279.0000
1982-05-25 02:30:00 UTC,2445114.604167,28.7317,-95.2428,0201,-1.93,0.52,2.0000,285.0000
1982-05-25 03:00:00 UTC,2445114.625000,28.7317,-95.2428,0201,-1.87,0.72,2.0000,291.0000
1982-05-25 03:30:00 UTC,2445114.645833,28.7317,-95.2428,0201,-1.31,1.51,2.0000,319.0000
1982-05-25 04:00:00 UTC,2445114.666667,28.7317,-95.2428,0201,-0.83,2.88,3.0000,344.0000
1982-05-25 04:30:00 UTC,2445114.687500,28.7317,-95.2428,0201,-0.17,5.00,5.0000,358.0000
1982-05-25 05:00:00 UTC,2445114.708333,28.7317,-95.2428,0201,1.10,6.91,7.0000,9.0000
1982-05-25 05:30:00 UTC,2445114.729167,28.7317,-95.2428,0201,2.76,9.61,10.0000,16.0000
1982-05-25 06:00:00 UTC,2445114.750000,28.7317,-95.2428,0201,4.30,11.20,12.0000,21.0000
1982-05-25 06:30:00 UTC,2445114.770833,28.7317,-95.2428,0201,5.47,12.89,14.0000,23.0000
1982-05-25 07:00:00 UTC,2445114.791667,28.7317,-95.2428,0201,6.64,15.65,17.0000,23.0000
1982-05-25 07:30:00 UTC,2445114.812500,28.7317,-95.2428,0201,7.73,17.36,19.0000,24.0000
1982-05-25 08:00:00 UTC,2445114.833333,28.7317,-95.2428,0201,8.54,19.18,21.0000,24.0000
1982-05-25 08:30:00 UTC,2445114.854167,28.7317,-95.2428,0201,10.44,20.49,23.0000,27.0000
1982-05-25 09:00:00 UTC,2445114.875000,28.7317,-95.2428,0201,12.00,20.78,24.0000,30.0000
1982-05-25 09:30:00 UTC,2445114.895833,28.7317,-95.2428,0201,11.85,19.71,23.0000,31.0000
1982-05-25 10:00:00 UTC,2445114.916667,28.7317,-95.2428,0201,10.82,18.00,21.0000,31.0000
1982-05-25 10:30:00 UTC,2445114.937500,28.7317,-95.2428,0201,11.13,17.81,21.0000,32.0000
1982-05-25 11:00:00 UTC,2445114.958333,28.7317,-95.2428,0201,11.74,17.41,21.0000,34.0000
1982-05-25 11:30:00 UTC,2445114.979167,28.7317,-95.2428,0201,12.04,15.97,20.0000,37.0000
1982-05-25 12:00:00 UTC,2445115.000000,28.7317,-95.2428,0201,13.38,14.86,20.0000,42.0000
1982-05-25 12:30:00 UTC,2445115.020833,28.7317,-95.2428,0201,13.44,13.44,19.0000,45.0000
1982-05-25 13:00:00 UTC,2445115.041667,28.7317,-95.2428,0201,12.83,11.15,17.0000,49.0000
1982-05-25 13:30:00 UTC,2445115.062500,28.7317,-95.2428,0201,14.56,10.58,18.0000,54.0000
1982-05-25 14:00:00 UTC,2445115.083333,28.7317,-95.2428,0201,15.43,9.27,18.0000,59.0000
1982-05-25 14:30:00 UTC,2445115.104167,28.7317,-95.2428,0201,15.89,8.45,18.0000,62.0000
1982-05-25 15:00:00 UTC,2445115.125000,28.7317,-95.2428,0201,16.31,7.61,18.0000,65.0000
1982-05-25 15:30:00 UTC,2445115.145833,28.7317,-95.2428,0201,15.76,6.37,17.0000,68.0000
1982-05-25 16:00:00 UTC,2445115.166667,28.7317,-95.2428,0201,15.53,6.91,17.0000,66.0000
1982-05-25 16:30:00 UTC,2445115.187500,28.7317,-95.2428,0201,15.89,8.45,18.0000,62.0000
1982-05-25 17:00:00 UTC,2445115.208333,28.7317,-95.2428,0201,17.32,10.00,20.0000,60.0000
1982-05-25 17:30:00 UTC,2445115.229167,28.7317,-95.2428,0201,18.19,10.50,21.0000,60.0000
1982-05-25 18:00:00 UTC,2445115.250000,28.7317,-95.2428,0201,18.00,10.82,21.0000,59.0000
1982-05-25 18:30:00 UTC,2445115.270833,28.7317,-95.2428,0201,16.96,10.60,20.0000,58.0000
1982-05-25 19:00:00 UTC,2445115.291667,28.7317,-95.2428,0201,14.09,9.51,17.0000,56.0000
1982-05-25 19:30:00 UTC,2445115.312500,28.7317,-95.2428,0201,12.78,9.63,16.0000,53.0000
1982-05-25 20:00:00 UTC,2445115.333333,28.7317,-95.2428,0201,14.56,10.58,18.0000,54.0000
1982-05-25 20:30:00 UTC,2445115.354167,28.7317,-95.2428,0201,15.75,10.62,19.0000,56.0000
1982-05-25 21:00:00 UTC,2445115.375000,28.7317,-95.2428,0201,15.43,9.27,18.0000,59.0000
1982-05-25 21:30:00 UTC,2445115.395833,28.7317,-95.2428,0201,15.15,7.72,17.0000,63.0000
1982-05-25 22:00:00 UTC,2445115.416667,28.7317,-95.2428,0201,12.89,5.47,14.0000,67.0000
1982-05-25 22:30:00 UTC,2445115.437500,28.7317,-95.2428,0201,11.28,4.10,12.0000,70.0000
1982-05-25 23:00:00 UTC,2445115.458333,28.7317,-95.2428,0201,8.65,2.48,9.0000,74.0000
1982-05-25 23:30:00 UTC,2445115.479167,28.7317,-95.2428,0201,6.85,1.46,7.0000,78.0000
1982-05-26 00:00:00 UTC,2445115.500000,28.7317,-95.2428,0201,5.96,0.73,6.0000,83.0000
1982-05-26 00:30:00 UTC,2445115.520833,28.7317,-95.2428,0201,4.00,0.00,4.0000,90.0000
1982-05-26 01:00:00 UTC,2445115.541667,28.7317,-95.2428,0201,3.00,-0.05,3.0000,91.0000
1982-05-26 01:30:00 UTC,2445115.562500,28.7317,-95.2428,0201,1.98,0.31,2.0000,81.0000
1982-05-26 02:00:00 UTC,2445115.583333,28.7317,-95.2428,0201,1.75,0.97,2.0000,61.0000
1982-05-26 02:30:00 UTC,2445115.604167,28.7317,-95.2428,0201,1.76,2.43,3.0000,36.0000
1982-05-26 03:00:00 UTC,2445115.625000,28.7317,-95.2428,0201,2.35,4.41,5.0000,28.0000
1982-05-26 03:30:00 UTC,2445115.645833,28.7317,-95.2428,0201,3.18,6.24,7.0000,27.0000
1982-05-26 04:00:00 UTC,2445115.666667,28.7317,-95.2428,0201,4.85,8.75,10.0000,29.0000
1982-05-26 04:30:00 UTC,2445115.687500,28.7317,-95.2428,0201,6.54,10.06,12.0000,33.0000
1982-05-26 05:00:00 UTC,2445115.708333,28.7317,-95.2428,0201,8.00,10.24,13.0000,38.0000
1982-05-26 05:30:00 UTC,2445115.729167,28.7317,-95.2428,0201,10.23,10.97,15.0000,43.0000
1982-05-26 06:00:00 UTC,2445115.750000,28.7317,-95.2428,0201,11.81,12.23,17.0000,44.0000
1982-05-26 06:30:00 UTC,2445115.770833,28.7317,-95.2428,0201,12.96,13.90,19.0000,43.0000
1982-05-26 07:00:00 UTC,2445115.791667,28.7317,-95.2428,0201,13.38,14.86,20.0000,42.0000
1982-05-26 07:30:00 UTC,2445115.812500,28.7317,-95.2428,0201,14.05,15.61,21.0000,42.0000
1982-05-26 08:00:00 UTC,2445115.833333,28.7317,-95.2428,0201,15.39,17.09,23.0000,42.0000
1982-05-26 08:30:00 UTC,2445115.854167,28.7317,-95.2428,0201,15.43,18.39,24.0000,40.0000
1982-05-26 09:00:00 UTC,2445115.875000,28.7317,-95.2428,0201,16.01,20.49,26.0000,38.0000
1982-05-26 09:30:00 UTC,2445115.895833,28.7317,-95.2428,0201,16.99,20.98,27.0000,39.0000
1982-05-26 10:00:00 UTC,2445115.916667,28.7317,-95.2428,0201,18.74,20.81,28.0000,42.0000
1982-05-26 10:30:00 UTC,2445115.937500,28.7317,-95.2428,0201,20.48,19.10,28.0000,47.0000
1982-05-26 11:00:00 UTC,2445115.958333,28.7317,-95.2428,0201,20.21,16.36,26.0000,51.0000
1982-05-26 11:30:00 UTC,2445115.979167,28.7317,-95.2428,0201,18.61,13.52,23.0000,54.0000
1982-05-26 12:00:00 UTC,2445116.000000,28.7317,-95.2428,0201,17.61,11.44,21.0000,57.0000
1982-05-26 12:30:00 UTC,2445116.020833,28.7317,-95.2428,0201,16.45,9.50,19.0000,60.0000
1982-05-26 13:00:00 UTC,2445116.041667,28.7317,-95.2428,0201,14.72,8.50,17.0000,60.0000
1982-05-26 13:30:00 UTC,2445116.062500,28.7317,-95.2428,0201,12.24,6.79,14.0000,61.0000
1982-05-26 14:00:00 UTC,2445116.083333,28.7317,-95.2428,0201,9.62,5.33,11.0000,61.0000
1982-05-26 14:30:00 UTC,2445116.104167,28.7317,-95.2428,0201,8.39,5.45,10.0000,57.0000
1982-05-26 15:00:00 UTC,2445116.125000,28.7317,-95.2428,0201,5.95,5.35,8.0000,48.0000
1982-05-26 15:30:00 UTC,2445116.145833,28.7317,-95.2428,0201,4.59,6.55,8.0000,35.0000
1982-05-26 16:00:00 UTC,2445116.166667,28.7317,-95.2428,0201,5.67,9.43,11.0000,31.0000
1982-05-26 16:30:00 UTC,2445116.187500,28.7317,-95.2428,0201,7.21,12.00,14.0000,31.0000
1982-05-26 17:00:00 UTC,2445116.208333,28.7317,-95.2428,0201,8.24,13.71,16.0000,31.0000
1982-05-26 17:30:00 UTC,2445116.229167,28.7317,-95.2428,0201,9.54,15.26,18.0000,32.0000
1982-05-26 18:00:00 UTC,2445116.250000,28.7317,-95.2428,0201,10.07,16.11,19.0000,32.0000
1982-05-26 18:30:00 UTC,2445116.270833,28.7317,-95.2428,0201,9.79,16.29,19.0000,31.0000
1982-05-26 19:00:00 UTC,2445116.291667,28.7317,-95.2428,0201,8.92,16.78,19.0000,28.0000
1982-05-26 19:30:00 UTC,2445116.312500,28.7317,-95.2428,0201,8.33,17.08,19.0000,26.0000
1982-05-26 20:00:00 UTC,2445116.333333,28.7317,-95.2428,0201,8.17,16.04,18.0000,27.0000
1982-05-26 20:30:00 UTC,2445116.354167,28.7317,-95.2428,0201,9.27,15.43,18.0000,31.0000
1982-05-26 21:00:00 UTC,2445116.375000,28.7317,-95.2428,0201,9.51,14.09,17.0000,34.0000
1982-05-26 21:30:00 UTC,2445116.395833,28.7317,-95.2428,0201,8.48,13.57,16.0000,32.0000
1982-05-26 22:00:00 UTC,2445116.416667,28.7317,-95.2428,0201,7.27,13.12,15.0000,29.0000
1982-05-26 22:30:00 UTC,2445116.437500,28.7317,-95.2428,0201,7.42,11.87,14.0000,32.0000
1982-05-26 23:00:00 UTC,2445116.458333,28.7317,-95.2428,0201,7.05,9.71,12.0000,36.0000
1982-05-26 23:30:00 UTC,2445116.479167,28.7317,-95.2428,0201,6.15,9.12,11.0000,34.0000
1982-05-27 00:00:00 UTC,2445116.500000,28.7317,-95.2428,0201,5.83,9.33,11.0000,32.0000
1982-05-27 00:30:00 UTC,2445116.520833,28.7317,-95.2428,0201,5.00,8.66,10.0000,30.0000
1982-05-27 01:00:00 UTC,2445116.541667,28.7317,-95.2428,0201,4.36,7.87,9.0000,29.0000
1982-05-27 01:30:00 UTC,2445116.562500,28.7317,-95.2428,0201,4.12,6.86,8.0000,31.0000
1982-05-27 02:00:00 UTC,2445116.583333,28.7317,-95.2428,0201,3.91,5.80,7.0000,34.0000
1982-05-27 02:30:00 UTC,2445116.604167,28.7317,-95.2428,0201,3.53,4.85,6.0000,36.0000
1982-05-27 03:00:00 UTC,2445116.625000,28.7317,-95.2428,0201,4.01,4.46,6.0000,42.0000
1982-05-27 03:30:00 UTC,2445116.645833,28.7317,-95.2428,0201,4.46,4.01,6.0000,48.0000
1982-05-27 04:00:00 UTC,2445116.666667,28.7317,-95.2428,0201,4.60,3.86,6.0000,50.0000
1982-05-27 04:30:00 UTC,2445116.687500,28.7317,-95.2428,0201,5.36,4.50,7.0000,50.0000
1982-05-27 05:00:00 UTC,2445116.708333,28.7317,-95.2428,0201,5.85,5.46,8.0000,47.0000
1982-05-27 05:30:00 UTC,2445116.729167,28.7317,-95.2428,0201,6.25,6.47,9.0000,44.0000
1982-05-27 06:00:00 UTC,2445116.750000,28.7317,-95.2428,0201,6.95,7.19,10.0000,44.0000
1982-05-27 06:30:00 UTC,2445116.770833,28.7317,-95.2428,0201,6.82,7.31,10.0000,43.0000
1982-05-27 07:00:00 UTC,2445116.791667,28.7317,-95.2428,0201,7.07,8.43,11.0000,40.0000
1982-05-27 07:30:00 UTC,2445116.812500,28.7317,-95.2428,0201,7.22,8.30,11.0000,41.0000
1982-05-27 08:00:00 UTC,2445116.833333,28.7317,-95.2428,0201,8.34,8.63,12.0000,44.0000
1982-05-27 08:30:00 UTC,2445116.854167,28.7317,-95.2428,0201,8.87,9.51,13.0000,43.0000
1982-05-27 09:00:00 UTC,2445116.875000,28.7317,-95.2428,0201,8.70,9.66,13.0000,42.0000
1982-05-27 09:30:00 UTC,2445116.895833,28.7317,-95.2428,0201,8.87,9.51,13.0000,43.0000
1982-05-27 10:00:00 UTC,2445116.916667,28.7317,-95.2428,0201,9.73,10.07,14.0000,44.0000
1982-05-27 10:30:00 UTC,2445116.937500,28.7317,-95.2428,0201,9.55,10.24,14.0000,43.0000
1982-05-27 11:00:00 UTC,2445116.958333,28.7317,-95.2428,0201,9.37,10.40,14.0000,42.0000
1982-05-27 11:30:00 UTC,2445116.979167,28.7317,-95.2428,0201,9.18,10.57,14.0000,41.0000
1982-05-27 12:00:00 UTC,2445117.000000,28.7317,-95.2428,0201,8.53,9.81,13.0000,41.0000
1982-05-27 12:30:00 UTC,2445117.020833,28.7317,-95.2428,0201,8.18,8.78,12.0000,43.0000
1982-05-27 13:00:00 UTC,2445117.041667,28.7317,-95.2428,0201,7.64,7.91,11.0000,44.0000
1982-05-27 13:30:00 UTC,2445117.062500,28.7317,-95.2428,0201,6.69,7.43,10.0000,42.0000
1982-05-27 14:00:00 UTC,2445117.083333,28.7317,-95.2428,0201,6.02,6.69,9.0000,42.0000
1982-05-27 14:30:00 UTC,2445117.104167,28.7317,-95.2428,0201,5.35,5.95,8.0000,42.0000
1982-05-27 15:00:00 UTC,2445117.125000,28.7317,-95.2428,0201,4.81,6.39,8.0000,37.0000
1982-05-27 15:30:00 UTC,2445117.145833,28.7317,-95.2428,0201,4.47,6.63,8.0000,34.0000
1982-05-27 16:00:00 UTC,2445117.166667,28.7317,-95.2428,0201,4.24,6.78,8.0000,32.0000
1982-05-27 16:30:00 UTC,2445117.187500,28.7317,-95.2428,0201,4.12,6.86,8.0000,31.0000
1982-05-27 17:00:00 UTC,2445117.208333,28.7317,-95.2428,0201,4.36,7.87,9.0000,29.0000
1982-05-27 17:30:00 UTC,2445117.229167,28.7317,-95.2428,0201,4.85,8.75,10.0000,29.0000
1982-05-27 18:00:00 UTC,2445117.250000,28.7317,-95.2428,0201,5.83,9.33,11.0000,32.0000
1982-05-27 18:30:00 UTC,2445117.270833,28.7317,-95.2428,0201,7.46,10.65,13.0000,35.0000
1982-05-27 19:00:00 UTC,2445117.291667,28.7317,-95.2428,0201,8.23,11.33,14.0000,36.0000
1982-05-27 19:30:00 UTC,2445117.312500,28.7317,-95.2428,0201,8.60,12.29,15.0000,35.0000
1982-05-27 20:00:00 UTC,2445117.333333,28.7317,-95.2428,0201,9.18,13.11,16.0000,35.0000
1982-05-27 20:30:00 UTC,2445117.354167,28.7317,-95.2428,0201,8.60,12.29,15.0000,35.0000
1982-05-27 21:00:00 UTC,2445117.375000,28.7317,-95.2428,0201,9.18,13.11,16.0000,35.0000
1982-05-27 21:30:00 UTC,2445117.395833,28.7317,-95.2428,0201,9.18,13.11,16.0000,35.0000
1982-05-27 22:00:00 UTC,2445117.416667,28.7317,-95.2428,0201,9.18,13.11,16.0000,35.0000
1982-05-27 22:30:00 UTC,2445117.437500,28.7317,-95.2428,0201,9.18,13.11,16.0000,35.0000
1982-05-27 23:00:00 UTC,2445117.458333,28.7317,-95.2428,0201,8.95,13.26,16.0000,34.0000
1982-05-27 23:30:00 UTC,2445117.479167,28.7317,-95.2428,0201,8.17,12.58,15.0000,33.0000
1982-05-28 00:00:00 UTC,2445117.500000,28.7317,-95.2428,0201,8.39,12.44,15.0000,34.0000
1982-05-28 00:30:00 UTC,2445117.520833,28.7317,-95.2428,0201,7.46,10.65,13.0000,35.0000
1982-05-28 01:00:00 UTC,2445117.541667,28.7317,-95.2428,0201,6.54,10.06,12.0000,33.0000
1982-05-28 01:30:00 UTC,2445117.562500,28.7317,-95.2428,0201,5.33,9.62,11.0000,29.0000
1982-05-28 02:00:00 UTC,2445117.583333,28.7317,-95.2428,0201,5.33,9.62,11.0000,29.0000
1982-05-28 02:30:00 UTC,2445117.604167,28.7317,-95.2428,0201,4.77,7.63,9.0000,32.0000
1982-05-28 03:00:00 UTC,2445117.625000,28.7317,-95.2428,0201,4.59,6.55,8.0000,35.0000
1982-05-28 03:30:00 UTC,2445117.645833,28.7317,-95.2428,0201,3.91,5.80,7.0000,34.0000
1982-05-28 04:00:00 UTC,2445117.666667,28.7317,-95.2428,0201,3.18,5.09,6.0000,32.0000
1982-05-28 04:30:00 UTC,2445117.687500,28.7317,-95.2428,0201,3.53,4.85,6.0000,36.0000
1982-05-28 05:00:00 UTC,2445117.708333,28.7317,-95.2428,0201,4.32,4.17,6.0000,46.0000
1982-05-28 05:30:00 UTC,2445117.729167,28.7317,-95.2428,0201,5.14,3.09,6.0000,59.0000
1982-05-28 06:00:00 UTC,2445117.750000,28.7317,-95.2428,0201,5.74,1.75,6.0000,73.0000
1982-05-28 06:30:00 UTC,2445117.770833,28.7317,-95.2428,0201,4.92,0.87,5.0000,80.0000
1982-05-28 07:00:00 UTC,2445117.791667,28.7317,-95.2428,0201,3.88,0.97,4.0000,76.0000
1982-05-28 07:30:00 UTC,2445117.812500,28.7317,-95.2428,0201,3.83,1.17,4.0000,73.0000
1982-05-28 08:00:00 UTC,2445117.833333,28.7317,-95.2428,0201,4.89,1.04,5.0000,78.0000
1982-05-28 08:30:00 UTC,2445117.854167,28.7317,-95.2428,0201,4.99,0.26,5.0000,87.0000
1982-05-28 09:00:00 UTC,2445117.875000,28.7317,-95.2428,0201,3.97,-0.49,4.0000,97.0000
1982-05-28 09:30:00 UTC,2445117.895833,28.7317,-95.2428,0201,3.99,-0.28,4.0000,94.0000
1982-05-28 10:00:00 UTC,2445117.916667,28.7317,-95.2428,0201,2.87,0.88,3.0000,73.0000
1982-05-28 10:30:00 UTC,2445117.937500,28.7317,-95.2428,0201,2.01,2.23,3.0000,42.0000
1982-05-28 11:00:00 UTC,2445117.958333,28.7317,-95.2428,0201,0.97,3.88,4.0000,14.0000
1982-05-28 11:30:00 UTC,2445117.979167,28.7317,-95.2428,0201,-0.21,6.00,6.0000,358.0000
1982-05-28 12:00:00 UTC,2445118.000000,28.7317,-95.2428,0201,-0.97,7.94,8.0000,353.0000
1982-05-28 12:30:00 UTC,2445118.020833,28.7317,-95.2428,0201,-1.56,8.86,9.0000,350.0000
1982-05-28 13:00:00 UTC,2445118.041667,28.7317,-95.2428,0201,-1.91,9.82,10.0000,349.0000
1982-05-28 13:30:00 UTC,2445118.062500,28.7317,-95.2428,0201,-1.91,10.83,11.0000,350.0000
1982-05-28 14:00:00 UTC,2445118.083333,28.7317,-95.2428,0201,-1.91,10.83,11.0000,350.0000
1982-05-28 14:30:00 UTC,2445118.104167,28.7317,-95.2428,0201,-2.29,10.76,11.0000,348.0000
1982-05-28 15:00:00 UTC,2445118.125000,28.7317,-95.2428,0201,-2.76,9.61,10.0000,344.0000
1982-05-28 15:30:00 UTC,2445118.145833,28.7317,-95.2428,0201,-2.76,9.61,10.0000,344.0000
1982-05-28 16:00:00 UTC,2445118.166667,28.7317,-95.2428,0201,-1.67,11.88,12.0000,352.0000
1982-05-28 16:30:00 UTC,2445118.187500,28.7317,-95.2428,0201,0.79,14.98,15.0000,3.0000
1982-05-28 17:00:00 UTC,2445118.208333,28.7317,-95.2428,0201,3.82,16.56,17.0000,13.0000
1982-05-28 17:30:00 UTC,2445118.229167,28.7317,-95.2428,0201,6.64,15.65,17.0000,23.0000
1982-05-28 18:00:00 UTC,2445118.250000,28.7317,-95.2428,0201,7.95,12.72,15.0000,32.0000
1982-05-28 18:30:00 UTC,2445118.270833,28.7317,-95.2428,0201,9.18,10.57,14.0000,41.0000
1982-05-28 19:00:00 UTC,2445118.291667,28.7317,-95.2428,0201,10.65,7.46,13.0000,55.0000
1982-05-28 19:30:00 UTC,2445118.312500,28.7317,-95.2428,0201,11.97,5.08,13.0000,67.0000
1982-05-28 20:00:00 UTC,2445118.333333,28.7317,-95.2428,0201,13.46,3.86,14.0000,74.0000
1982-05-28 20:30:00 UTC,2445118.354167,28.7317,-95.2428,0201,13.74,2.67,14.0000,79.0000
1982-05-28 21:00:00 UTC,2445118.375000,28.7317,-95.2428,0201,13.95,1.22,14.0000,85.0000
1982-05-28 21:30:00 UTC,2445118.395833,28.7317,-95.2428,0201,14.00,-0.24,14.0000,91.0000
1982-05-28 22:00:00 UTC,2445118.416667,28.7317,-95.2428,0201,13.99,-0.49,14.0000,92.0000
1982-05-28 22:30:00 UTC,2445118.437500,28.7317,-95.2428,0201,14.00,0.24,14.0000,89.0000
1982-05-28 23:00:00 UTC,2445118.458333,28.7317,-95.2428,0201,13.98,0.73,14.0000,87.0000
1982-05-28 23:30:00 UTC,2445118.479167,28.7317,-95.2428,0201,14.00,0.24,14.0000,89.0000
1982-05-29 00:00:00 UTC,2445118.500000,28.7317,-95.2428,0201,13.00,-0.23,13.0000,91.0000
1982-05-29 00:30:00 UTC,2445118.520833,28.7317,-95.2428,0201,11.97,-0.84,12.0000,94.0000
1982-05-29 01:00:00 UTC,2445118.541667,28.7317,-95.2428,0201,11.85,-1.88,12.0000,99.0000
1982-05-29 01:30:00 UTC,2445118.562500,28.7317,-95.2428,0201,11.74,-2.49,12.0000,102.0000
1982-05-29 02:00:00 UTC,2445118.583333,28.7317,-95.2428,0201,11.54,-3.31,12.0000,106.0000
1982-05-29 02:30:00 UTC,2445118.604167,28.7317,-95.2428,0201,10.96,-4.88,12.0000,114.0000
1982-05-29 03:00:00 UTC,2445118.625000,28.7317,-95.2428,0201,10.78,-7.27,13.0000,124.0000
1982-05-29 03:30:00 UTC,2445118.645833,28.7317,-95.2428,0201,10.57,-9.18,14.0000,131.0000
1982-05-29 04:00:00 UTC,2445118.666667,28.7317,-95.2428,0201,10.04,-11.15,15.0000,138.0000
1982-05-29 04:30:00 UTC,2445118.687500,28.7317,-95.2428,0201,9.75,-13.93,17.0000,145.0000
1982-05-29 05:00:00 UTC,2445118.708333,28.7317,-95.2428,0201,7.03,-16.57,18.0000,157.0000
1982-05-29 05:30:00 UTC,2445118.729167,28.7317,-95.2428,0201,3.95,-18.58,19.0000,168.0000
1982-05-29 06:00:00 UTC,2445118.750000,28.7317,-95.2428,0201,2.20,-20.88,21.0000,174.0000
1982-05-29 06:30:00 UTC,2445118.770833,28.7317,-95.2428,0201,-0.40,-23.00,23.0000,181.0000
1982-05-29 07:00:00 UTC,2445118.791667,28.7317,-95.2428,0201,-4.58,-23.56,24.0000,191.0000
1982-05-29 07:30:00 UTC,2445118.812500,28.7317,-95.2428,0201,-8.24,-21.47,23.0000,201.0000
1982-05-29 08:00:00 UTC,2445118.833333,28.7317,-95.2428,0201,-9.99,-19.60,22.0000,207.0000
1982-05-29 08:30:00 UTC,2445118.854167,28.7317,-95.2428,0201,-10.00,-17.32,20.0000,210.0000
1982-05-29 09:00:00 UTC,2445118.875000,28.7317,-95.2428,0201,-9.75,-13.93,17.0000,215.0000
1982-05-29 09:30:00 UTC,2445118.895833,28.7317,-95.2428,0201,-12.23,-11.81,17.0000,226.0000
1982-05-29 10:00:00 UTC,2445118.916667,28.7317,-95.2428,0201,-15.10,-9.80,18.0000,237.0000
1982-05-29 10:30:00 UTC,2445118.937500,28.7317,-95.2428,0201,-16.80,-6.45,18.0000,249.0000
1982-05-29 11:00:00 UTC,2445118.958333,28.7317,-95.2428,0201,-15.96,-1.12,16.0000,266.0000
1982-05-29 11:30:00 UTC,2445118.979167,28.7317,-95.2428,0201,-15.38,4.41,16.0000,286.0000
1982-05-29 12:00:00 UTC,2445119.000000,28.7317,-95.2428,0201,-14.26,9.26,17.0000,303.0000
1982-05-29 12:30:00 UTC,2445119.020833,28.7317,-95.2428,0201,-12.63,11.38,17.0000,312.0000
1982-05-29 13:00:00 UTC,2445119.041667,28.7317,-95.2428,0201,-10.07,12.43,16.0000,321.0000
1982-05-29 13:30:00 UTC,2445119.062500,28.7317,-95.2428,0201,-7.27,13.12,15.0000,331.0000
1982-05-29 14:00:00 UTC,2445119.083333,28.7317,-95.2428,0201,-4.56,13.24,14.0000,341.0000
1982-05-29 14:30:00 UTC,2445119.104167,28.7317,-95.2428,0201,-1.81,12.87,13.0000,352.0000
1982-05-29 15:00:00 UTC,2445119.125000,28.7317,-95.2428,0201,1.05,11.95,12.0000,5.0000
1982-05-29 15:30:00 UTC,2445119.145833,28.7317,-95.2428,0201,2.76,9.61,10.0000,16.0000
1982-05-29 16:00:00 UTC,2445119.166667,28.7317,-95.2428,0201,3.66,8.22,9.0000,24.0000
1982-05-29 16:30:00 UTC,2445119.187500,28.7317,-95.2428,0201,3.71,5.94,7.0000,32.0000
1982-05-29 17:00:00 UTC,2445119.208333,28.7317,-95.2428,0201,3.27,5.03,6.0000,33.0000
1982-05-29 17:30:00 UTC,2445119.229167,28.7317,-95.2428,0201,3.15,3.89,5.0000,39.0000
1982-05-29 18:00:00 UTC,2445119.250000,28.7317,-95.2428,0201,4.57,2.03,5.0000,66.0000
1982-05-29 18:30:00 UTC,2445119.270833,28.7317,-95.2428,0201,3.99,-0.21,4.0000,93.0000
1982-05-29 19:00:00 UTC,2445119.291667,28.7317,-95.2428,0201,3.73,-1.43,4.0000,111.0000
1982-05-29 19:30:00 UTC,2445119.312500,28.7317,-95.2428,0201,3.28,-2.29,4.0000,125.0000
1982-05-29 20:00:00 UTC,2445119.333333,28.7317,-95.2428,0201,4.39,-4.09,6.0000,133.0000
1982-05-29 20:30:00 UTC,2445119.354167,28.7317,-95.2428,0201,4.59,-5.28,7.0000,139.0000
1982-05-29 21:00:00 UTC,2445119.375000,28.7317,-95.2428,0201,4.81,-6.39,8.0000,143.0000
1982-05-29 21:30:00 UTC,2445119.395833,28.7317,-95.2428,0201,4.81,-6.39,8.0000,143.0000
1982-05-29 22:00:00 UTC,2445119.416667,28.7317,-95.2428,0201,4.47,-6.63,8.0000,146.0000
1982-05-29 22:30:00 UTC,2445119.437500,28.7317,-95.2428,0201,2.85,-6.39,7.0000,156.0000
1982-05-29 23:00:00 UTC,2445119.458333,28.7317,-95.2428,0201,1.45,-5.82,6.0000,166.0000
1982-05-29 23:30:00 UTC,2445119.479167,28.7317,-95.2428,0201,1.25,-5.87,6.0000,168.0000
1982-05-30 00:00:00 UTC,2445119.500000,28.7317,-95.2428,0201,0.52,-5.98,6.0000,175.0000
1982-05-30 00:30:00 UTC,2445119.520833,28.7317,-95.2428,0201,-0.94,-5.93,6.0000,189.0000
1982-05-30 01:00:00 UTC,2445119.541667,28.7317,-95.2428,0201,-1.45,-5.82,6.0000,194.0000
1982-05-30 01:30:00 UTC,2445119.562500,28.7317,-95.2428,0201,0.00,-5.00,5.0000,180.0000
1982-05-30 02:00:00 UTC,2445119.583333,28.7317,-95.2428,0201,1.85,-5.71,6.0000,162.0000
1982-05-30 02:30:00 UTC,2445119.604167,28.7317,-95.2428,0201,2.34,-5.52,6.0000,157.0000
1982-05-30 03:00:00 UTC,2445119.625000,28.7317,-95.2428,0201,1.55,-5.80,6.0000,165.0000
1982-05-30 03:30:00 UTC,2445119.645833,28.7317,-95.2428,0201,0.42,-7.99,8.0000,177.0000
1982-05-30 04:00:00 UTC,2445119.666667,28.7317,-95.2428,0201,-0.38,-10.99,11.0000,182.0000
1982-05-30 04:30:00 UTC,2445119.687500,28.7317,-95.2428,0201,-1.36,-12.93,13.0000,186.0000
1982-05-30 05:00:00 UTC,2445119.708333,28.7317,-95.2428,0201,-3.63,-14.55,15.0000,194.0000
1982-05-30 05:30:00 UTC,2445119.729167,28.7317,-95.2428,0201,-6.76,-14.50,16.0000,205.0000
1982-05-30 06:00:00 UTC,2445119.750000,28.7317,-95.2428,0201,-8.39,-12.44,15.0000,214.0000
1982-05-30 06:30:00 UTC,2445119.770833,28.7317,-95.2428,0201,-9.84,-11.32,15.0000,221.0000
1982-05-30 07:00:00 UTC,2445119.791667,28.7317,-95.2428,0201,-11.15,-10.04,15.0000,228.0000
1982-05-30 07:30:00 UTC,2445119.812500,28.7317,-95.2428,0201,-12.29,-8.60,15.0000,235.0000
1982-05-30 08:00:00 UTC,2445119.833333,28.7317,-95.2428,0201,-13.24,-7.04,15.0000,242.0000
1982-05-30 08:30:00 UTC,2445119.854167,28.7317,-95.2428,0201,-13.07,-5.02,14.0000,249.0000
1982-05-30 09:00:00 UTC,2445119.875000,28.7317,-95.2428,0201,-13.64,-3.15,14.0000,257.0000
1982-05-30 09:30:00 UTC,2445119.895833,28.7317,-95.2428,0201,-13.90,-1.71,14.0000,263.0000
1982-05-30 10:00:00 UTC,2445119.916667,28.7317,-95.2428,0201,-13.98,-0.73,14.0000,267.0000